Wetterdaten: Dienstag, 31.07.2012
Datum Zeit Temperatur Luftfeuchte Regen Wind Richtung Richtung Taupunkt Windchill Windben
31.07.2012 00:00 13,1 C 80 % 0,0 l/m 0,0 km/h (0 Bft) W 270 9,7 C 12,7 C 0,0 km/h (0 Bft)
31.07.2012 00:05 13,1 C 80 % 0,0 l/m 0,0 km/h (0 Bft) S-SO 157 9,7 C 12,8 C 0,0 km/h (0 Bft)
31.07.2012 00:10 13,1 C 80 % 0,0 l/m 0,0 km/h (0 Bft) N-NO 22 9,7 C 12,9 C 0,0 km/h (0 Bft)
31.07.2012 00:15 13,0 C 81 % 0,0 l/m 0,3 km/h (0 Bft) SO 135 9,8 C 12,8 C 2,7 km/h (1 Bft)
31.07.2012 00:20 13,1 C 82 % 0,0 l/m 0,2 km/h (0 Bft) N-NW 337 10,1 C 12,8 C 0,0 km/h (0 Bft)
31.07.2012 00:25 12,8 C 83 % 0,0 l/m 0,2 km/h (0 Bft) SO 135 10,0 C 12,7 C 0,0 km/h (0 Bft)
31.07.2012 00:30 12,8 C 83 % 0,0 l/m 0,0 km/h (0 Bft) N-NO 22 10,0 C 12,5 C 0,0 km/h (0 Bft)
31.07.2012 00:35 12,4 C 83 % 0,0 l/m 0,0 km/h (0 Bft) N-NO 22 9,6 C 12,2 C 0,0 km/h (0 Bft)
31.07.2012 00:40 12,5 C 83 % 0,0 l/m 0,0 km/h (0 Bft) N-NO 22 9,7 C 12,2 C 0,0 km/h (0 Bft)
31.07.2012 00:45 12,6 C 83 % 0,0 l/m 0,0 km/h (0 Bft) S-SO 157 9,8 C 12,2 C 0,0 km/h (0 Bft)
31.07.2012 00:50 12,7 C 84 % 0,0 l/m 0,0 km/h (0 Bft) N-NO 22 10,1 C 12,2 C 0,0 km/h (0 Bft)
31.07.2012 00:55 12,8 C 84 % 0,0 l/m 0,0 km/h (0 Bft) O-NO 67 10,2 C 12,4 C 0,0 km/h (0 Bft)
31.07.2012 01:00 13,1 C 84 % 0,0 l/m 0,0 km/h (0 Bft) N-NO 22 10,5 C 12,6 C 0,0 km/h (0 Bft)
31.07.2012 01:05 13,3 C 84 % 0,0 l/m 0,0 km/h (0 Bft) N-NO 22 10,7 C 12,9 C 0,0 km/h (0 Bft)
31.07.2012 01:10 13,4 C 84 % 0,0 l/m 0,0 km/h (0 Bft) N-NO 22 10,8 C 13,0 C 0,0 km/h (0 Bft)
31.07.2012 01:15 13,6 C 83 % 0,0 l/m 0,0 km/h (0 Bft) O-NO 67 10,8 C 13,2 C 0,0 km/h (0 Bft)
31.07.2012 01:20 13,5 C 83 % 0,0 l/m 0,0 km/h (0 Bft) SO 135 10,7 C 13,2 C 0,0 km/h (0 Bft)
31.07.2012 01:25 13,4 C 82 % 0,0 l/m 0,0 km/h (0 Bft) SO 135 10,4 C 13,1 C 0,0 km/h (0 Bft)
31.07.2012 01:30 13,2 C 82 % 0,0 l/m 0,0 km/h (0 Bft) SO 135 10,2 C 13,1 C 0,0 km/h (0 Bft)
31.07.2012 01:35 13,1 C 82 % 0,0 l/m 0,2 km/h (0 Bft) N-NO 22 10,1 C 13,1 C 0,0 km/h (0 Bft)
31.07.2012 01:40 13,1 C 82 % 0,0 l/m 0,2 km/h (0 Bft) S-SO 157 10,1 C 13,1 C 2,9 km/h (1 Bft)
31.07.2012 01:45 13,2 C 82 % 0,0 l/m 0,0 km/h (0 Bft) SO 135 10,2 C 13,1 C 0,0 km/h (0 Bft)
31.07.2012 01:50 13,2 C 82 % 0,0 l/m 0,0 km/h (0 Bft) N-NO 22 10,2 C 13,1 C 0,0 km/h (0 Bft)
31.07.2012 01:55 13,0 C 82 % 0,0 l/m 0,0 km/h (0 Bft) O-NO 67 10,0 C 12,9 C 0,0 km/h (0 Bft)
31.07.2012 02:00 12,9 C 83 % 0,0 l/m 0,3 km/h (0 Bft) O 90 10,1 C 12,9 C 1,8 km/h (1 Bft)
31.07.2012 02:05 12,8 C 83 % 0,0 l/m 0,5 km/h (0 Bft) O 90 10,0 C 12,9 C 0,0 km/h (0 Bft)
31.07.2012 02:10 13,1 C 82 % 0,0 l/m 0,3 km/h (0 Bft) O 90 10,1 C 12,9 C 0,0 km/h (0 Bft)
31.07.2012 02:15 13,0 C 82 % 0,0 l/m 0,3 km/h (0 Bft) N-NO 22 10,0 C 12,9 C 0,0 km/h (0 Bft)
31.07.2012 02:20 12,7 C 82 % 0,0 l/m 0,2 km/h (0 Bft) S-SO 157 9,7 C 12,7 C 0,0 km/h (0 Bft)
31.07.2012 02:25 12,5 C 83 % 0,0 l/m 0,0 km/h (0 Bft) N-NO 22 9,7 C 12,4 C 0,0 km/h (0 Bft)
31.07.2012 02:30 12,3 C 83 % 0,0 l/m 0,0 km/h (0 Bft) NO 45 9,5 C 12,2 C 0,0 km/h (0 Bft)
31.07.2012 02:35 12,2 C 84 % 0,0 l/m 0,0 km/h (0 Bft) N 360 9,6 C 11,9 C 0,0 km/h (0 Bft)
31.07.2012 02:40 12,2 C 85 % 0,0 l/m 0,0 km/h (0 Bft) N-NW 337 9,8 C 11,8 C 0,0 km/h (0 Bft)
31.07.2012 02:45 11,8 C 85 % 0,0 l/m 0,0 km/h (0 Bft) S 180 9,4 C 11,6 C 0,0 km/h (0 Bft)
31.07.2012 02:50 11,7 C 85 % 0,0 l/m 0,0 km/h (0 Bft) N-NO 22 9,3 C 11,4 C 0,0 km/h (0 Bft)
31.07.2012 02:55 12,0 C 85 % 0,0 l/m 0,3 km/h (0 Bft) O-NO 67 9,6 C 11,3 C 0,0 km/h (0 Bft)
31.07.2012 03:00 11,9 C 85 % 0,0 l/m 0,5 km/h (0 Bft) O-SO 112 9,5 C 11,3 C 1,6 km/h (1 Bft)
31.07.2012 03:05 11,9 C 86 % 0,0 l/m 0,3 km/h (0 Bft) W-SW 247 9,6 C 11,5 C 0,0 km/h (0 Bft)
31.07.2012 03:10 11,6 C 86 % 0,0 l/m 0,3 km/h (0 Bft) S-SO 157 9,3 C 11,3 C 0,0 km/h (0 Bft)
31.07.2012 03:15 11,3 C 86 % 0,0 l/m 0,0 km/h (0 Bft) N 360 9,0 C 10,9 C 0,0 km/h (0 Bft)
31.07.2012 03:20 11,0 C 86 % 0,0 l/m 0,0 km/h (0 Bft) O 90 8,7 C 10,7 C 0,0 km/h (0 Bft)
31.07.2012 03:25 11,0 C 86 % 0,0 l/m 0,0 km/h (0 Bft) W-NW 292 8,7 C 10,6 C 0,0 km/h (0 Bft)
31.07.2012 03:30 10,8 C 86 % 0,0 l/m 0,0 km/h (0 Bft) S 180 8,6 C 10,6 C 0,0 km/h (0 Bft)
31.07.2012 03:35 10,7 C 87 % 0,0 l/m 0,0 km/h (0 Bft) N-NW 337 8,6 C 10,3 C 0,0 km/h (0 Bft)
31.07.2012 03:40 10,7 C 87 % 0,0 l/m 0,0 km/h (0 Bft) N 360 8,6 C 10,3 C 0,0 km/h (0 Bft)
31.07.2012 03:45 10,7 C 88 % 0,0 l/m 0,0 km/h (0 Bft) N-NW 337 8,8 C 10,3 C 0,0 km/h (0 Bft)
31.07.2012 03:50 10,9 C 89 % 0,0 l/m 0,2 km/h (0 Bft) N 360 9,2 C 10,3 C 0,0 km/h (0 Bft)
31.07.2012 03:55 11,3 C 89 % 0,0 l/m 0,3 km/h (0 Bft) O-SO 112 9,6 C 10,4 C 0,0 km/h (0 Bft)
31.07.2012 04:00 10,9 C 88 % 0,0 l/m 0,3 km/h (0 Bft) SO 135 9,0 C 10,4 C 0,0 km/h (0 Bft)
31.07.2012 04:05 10,8 C 89 % 0,0 l/m 0,2 km/h (0 Bft) N-NO 22 9,1 C 10,4 C 0,0 km/h (0 Bft)
31.07.2012 04:10 11,0 C 88 % 0,0 l/m 0,2 km/h (0 Bft) N-NO 22 9,1 C 10,4 C 0,0 km/h (0 Bft)
31.07.2012 04:15 10,6 C 88 % 0,0 l/m 0,0 km/h (0 Bft) NO 45 8,7 C 10,3 C 0,0 km/h (0 Bft)
31.07.2012 04:20 10,5 C 88 % 0,0 l/m 0,0 km/h (0 Bft) NO 45 8,6 C 10,1 C 0,0 km/h (0 Bft)
31.07.2012 04:25 10,6 C 88 % 0,0 l/m 0,0 km/h (0 Bft) O-SO 112 8,7 C 10,0 C 0,0 km/h (0 Bft)
31.07.2012 04:30 10,3 C 88 % 0,0 l/m 0,0 km/h (0 Bft) NO 45 8,4 C 10,0 C 0,0 km/h (0 Bft)
31.07.2012 04:35 10,4 C 89 % 0,0 l/m 0,0 km/h (0 Bft) O-NO 67 8,7 C 10,0 C 0,0 km/h (0 Bft)
31.07.2012 04:40 10,1 C 89 % 0,0 l/m 0,0 km/h (0 Bft) N-NW 337 8,4 C 10,0 C 0,0 km/h (0 Bft)
31.07.2012 04:45 10,0 C 89 % 0,0 l/m 0,0 km/h (0 Bft) NW 315 8,3 C 9,8 C 0,0 km/h (0 Bft)
31.07.2012 04:50 9,9 C 89 % 0,0 l/m 0,0 km/h (0 Bft) S 180 8,2 C 9,8 C 0,0 km/h (0 Bft)
31.07.2012 04:55 9,7 C 89 % 0,0 l/m 0,0 km/h (0 Bft) W-NW 292 8,0 C 9,5 C 0,0 km/h (0 Bft)
31.07.2012 05:00 9,7 C 89 % 0,0 l/m 0,0 km/h (0 Bft) N-NW 337 8,0 C 9,5 C 0,0 km/h (0 Bft)
31.07.2012 05:05 9,8 C 89 % 0,0 l/m 0,0 km/h (0 Bft) N-NO 22 8,1 C 9,5 C 0,0 km/h (0 Bft)
31.07.2012 05:10 9,7 C 89 % 0,0 l/m 0,0 km/h (0 Bft) S-SO 157 8,0 C 9,5 C 0,0 km/h (0 Bft)
31.07.2012 05:15 9,8 C 90 % 0,0 l/m 0,0 km/h (0 Bft) SO 135 8,2 C 9,5 C 0,0 km/h (0 Bft)
31.07.2012 05:20 9,7 C 90 % 0,0 l/m 0,0 km/h (0 Bft) S-SO 157 8,1 C 9,4 C 0,0 km/h (0 Bft)
31.07.2012 05:25 9,5 C 90 % 0,0 l/m 0,0 km/h (0 Bft) SO 135 7,9 C 9,3 C 0,0 km/h (0 Bft)
31.07.2012 05:30 9,6 C 90 % 0,0 l/m 0,0 km/h (0 Bft) NW 315 8,0 C 9,2 C 0,0 km/h (0 Bft)
31.07.2012 05:35 9,5 C 90 % 0,0 l/m 0,0 km/h (0 Bft) NO 45 7,9 C 9,3 C 0,0 km/h (0 Bft)
31.07.2012 05:40 9,6 C 90 % 0,0 l/m 0,0 km/h (0 Bft) W 270 8,0 C 9,2 C 0,0 km/h (0 Bft)
31.07.2012 05:45 9,7 C 90 % 0,0 l/m 0,0 km/h (0 Bft) W-SW 247 8,1 C 9,4 C 0,0 km/h (0 Bft)
31.07.2012 05:50 9,7 C 90 % 0,0 l/m 0,0 km/h (0 Bft) O 90 8,1 C 9,4 C 0,0 km/h (0 Bft)
31.07.2012 05:55 9,6 C 90 % 0,0 l/m 0,0 km/h (0 Bft) W-NW 292 8,0 C 9,5 C 0,0 km/h (0 Bft)
31.07.2012 06:00 9,7 C 90 % 0,0 l/m 0,0 km/h (0 Bft) O 90 8,1 C 9,5 C 0,0 km/h (0 Bft)
31.07.2012 06:05 10,0 C 90 % 0,0 l/m 0,0 km/h (0 Bft) NO 45 8,4 C 9,6 C 0,0 km/h (0 Bft)
31.07.2012 06:10 10,0 C 90 % 0,0 l/m 0,0 km/h (0 Bft) O-SO 112 8,4 C 9,7 C 0,0 km/h (0 Bft)
31.07.2012 06:15 10,0 C 90 % 0,0 l/m 0,0 km/h (0 Bft) N-NW 337 8,4 C 9,8 C 0,0 km/h (0 Bft)
31.07.2012 06:20 10,1 C 90 % 0,0 l/m 0,0 km/h (0 Bft) SO 135 8,5 C 9,8 C 0,0 km/h (0 Bft)
31.07.2012 06:25 10,1 C 90 % 0,0 l/m 0,0 km/h (0 Bft) N-NO 22 8,5 C 9,8 C 0,0 km/h (0 Bft)
31.07.2012 06:30 10,1 C 90 % 0,0 l/m 0,0 km/h (0 Bft) SO 135 8,5 C 9,8 C 0,0 km/h (0 Bft)
31.07.2012 06:35 10,0 C 90 % 0,0 l/m 0,0 km/h (0 Bft) N 360 8,4 C 9,8 C 0,0 km/h (0 Bft)
31.07.2012 06:40 10,2 C 90 % 0,0 l/m 0,0 km/h (0 Bft) S 180 8,6 C 9,8 C 0,0 km/h (0 Bft)
31.07.2012 06:45 10,5 C 91 % 0,0 l/m 0,0 km/h (0 Bft) N-NW 337 9,1 C 10,0 C 0,0 km/h (0 Bft)
31.07.2012 06:50 10,9 C 91 % 0,0 l/m 0,0 km/h (0 Bft) N-NW 337 9,5 C 10,3 C 0,0 km/h (0 Bft)
31.07.2012 06:55 11,5 C 90 % 0,0 l/m 0,0 km/h (0 Bft) W-SW 247 9,9 C 11,0 C 0,0 km/h (0 Bft)
31.07.2012 07:00 12,5 C 89 % 0,0 l/m 0,0 km/h (0 Bft) S 180 10,7 C 11,5 C 0,0 km/h (0 Bft)
31.07.2012 07:05 13,1 C 86 % 0,0 l/m 0,0 km/h (0 Bft) N-NW 337 10,8 C 12,5 C 0,0 km/h (0 Bft)
31.07.2012 07:10 13,3 C 83 % 0,0 l/m 0,0 km/h (0 Bft) W-SW 247 10,5 C 12,9 C 0,0 km/h (0 Bft)
31.07.2012 07:15 14,1 C 83 % 0,0 l/m 0,0 km/h (0 Bft) N-NO 22 11,3 C 14,0 C 0,0 km/h (0 Bft)
31.07.2012 07:20 14,0 C 83 % 0,0 l/m 0,0 km/h (0 Bft) N 360 11,2 C 14,3 C 0,0 km/h (0 Bft)
31.07.2012 07:25 14,6 C 83 % 0,0 l/m 0,0 km/h (0 Bft) O-SO 112 11,7 C 14,8 C 0,0 km/h (0 Bft)
31.07.2012 07:30 15,1 C 82 % 0,0 l/m 0,0 km/h (0 Bft) SO 135 12,0 C 14,9 C 0,0 km/h (0 Bft)
31.07.2012 07:35 15,2 C 81 % 0,0 l/m 0,0 km/h (0 Bft) O-SO 112 12,0 C 15,6 C 0,0 km/h (0 Bft)
31.07.2012 07:40 15,3 C 79 % 0,0 l/m 0,0 km/h (0 Bft) N-NO 22 11,7 C 16,2 C 0,0 km/h (0 Bft)
31.07.2012 07:45 16,1 C 76 % 0,0 l/m 0,0 km/h (0 Bft) S 180 11,9 C 16,9 C 0,0 km/h (0 Bft)
31.07.2012 07:50 15,7 C 77 % 0,0 l/m 0,0 km/h (0 Bft) S 180 11,7 C 17,0 C 0,0 km/h (0 Bft)
31.07.2012 07:55 17,3 C 75 % 0,0 l/m 0,0 km/h (0 Bft) W-SW 247 12,8 C 17,1 C 0,0 km/h (0 Bft)
31.07.2012 08:00 18,8 C 70 % 0,0 l/m 0,0 km/h (0 Bft) W-SW 247 13,2 C 18,4 C 0,0 km/h (0 Bft)
31.07.2012 08:05 20,7 C 67 % 0,0 l/m 0,0 km/h (0 Bft) NO 45 14,3 C 21,0 C 0,0 km/h (0 Bft)
31.07.2012 08:10 18,9 C 67 % 0,0 l/m 0,0 km/h (0 Bft) O 90 12,6 C 21,6 C 0,0 km/h (0 Bft)
31.07.2012 08:15 20,2 C 65 % 0,0 l/m 0,3 km/h (0 Bft) S 180 13,4 C 21,8 C 1,6 km/h (1 Bft)
31.07.2012 08:20 21,7 C 61 % 0,0 l/m 0,3 km/h (0 Bft) SW 225 13,8 C 22,5 C 0,0 km/h (0 Bft)
31.07.2012 08:25 20,7 C 62 % 0,0 l/m 0,2 km/h (0 Bft) W 270 13,2 C 23,1 C 0,0 km/h (0 Bft)
31.07.2012 08:30 20,1 C 63 % 0,0 l/m 0,3 km/h (0 Bft) S 180 12,8 C 22,4 C 0,0 km/h (0 Bft)
31.07.2012 08:35 20,8 C 59 % 0,0 l/m 0,5 km/h (0 Bft) O-NO 67 13,0 C 23,1 C 0,0 km/h (0 Bft)
31.07.2012 08:40 21,1 C 58 % 0,0 l/m 0,3 km/h (0 Bft) S 180 14,2 C 23,3 C 1,6 km/h (1 Bft)
31.07.2012 08:45 21,3 C 53 % 0,0 l/m 1,0 km/h (0 Bft) SW 225 13,6 C 24,6 C 1,9 km/h (1 Bft)
31.07.2012 08:50 21,2 C 54 % 0,0 l/m 1,1 km/h (1 Bft) S-SW 202 14,3 C 25,3 C 1,8 km/h (1 Bft)
31.07.2012 08:55 21,3 C 50 % 0,0 l/m 1,1 km/h (1 Bft) S-SW 202 13,0 C 25,8 C 2,3 km/h (1 Bft)
31.07.2012 09:00 21,4 C 49 % 0,0 l/m 1,4 km/h (1 Bft) S 180 12,8 C 26,0 C 2,6 km/h (1 Bft)
31.07.2012 09:05 21,3 C 47 % 0,0 l/m 1,4 km/h (1 Bft) N 360 12,6 C 26,3 C 0,0 km/h (0 Bft)
31.07.2012 09:10 21,3 C 46 % 0,0 l/m 1,1 km/h (1 Bft) NW 315 11,8 C 26,4 C 1,9 km/h (1 Bft)
31.07.2012 09:15 21,7 C 47 % 0,0 l/m 1,3 km/h (1 Bft) S-SW 202 12,6 C 26,7 C 3,9 km/h (1 Bft)
31.07.2012 09:20 21,7 C 43 % 0,0 l/m 1,4 km/h (1 Bft) N 360 10,7 C 26,9 C 4,2 km/h (1 Bft)
31.07.2012 09:25 22,0 C 45 % 0,0 l/m 0,8 km/h (0 Bft) S 180 12,0 C 27,7 C 1,9 km/h (1 Bft)
31.07.2012 09:30 22,3 C 45 % 0,0 l/m 1,3 km/h (1 Bft) O-SO 112 12,4 C 27,9 C 2,3 km/h (1 Bft)
31.07.2012 09:35 22,4 C 42 % 0,0 l/m 1,9 km/h (1 Bft) W-SW 247 11,7 C 27,5 C 2,3 km/h (1 Bft)
31.07.2012 09:40 22,7 C 39 % 0,0 l/m 1,3 km/h (1 Bft) O-SO 112 10,8 C 28,1 C 4,8 km/h (1 Bft)
31.07.2012 09:45 23,1 C 40 % 0,0 l/m 1,3 km/h (1 Bft) W-SW 247 11,3 C 28,7 C 3,5 km/h (1 Bft)
31.07.2012 09:50 22,9 C 42 % 0,0 l/m 2,4 km/h (1 Bft) W 270 11,5 C 28,2 C 5,5 km/h (1 Bft)
31.07.2012 09:55 23,1 C 42 % 0,0 l/m 2,6 km/h (1 Bft) S-SO 157 11,5 C 27,7 C 1,8 km/h (1 Bft)
31.07.2012 10:00 23,6 C 40 % 0,0 l/m 2,1 km/h (1 Bft) S-SO 157 12,1 C 28,3 C 2,6 km/h (1 Bft)
31.07.2012 10:05 23,1 C 43 % 0,0 l/m 1,6 km/h (1 Bft) S-SW 202 10,6 C 28,2 C 3,9 km/h (1 Bft)
31.07.2012 10:10 22,7 C 47 % 0,0 l/m 2,1 km/h (1 Bft) S 180 10,9 C 26,0 C 3,9 km/h (1 Bft)
31.07.2012 10:15 23,3 C 44 % 0,0 l/m 2,7 km/h (1 Bft) S 180 12,0 C 25,2 C 2,1 km/h (1 Bft)
31.07.2012 10:20 23,6 C 43 % 0,0 l/m 2,9 km/h (1 Bft) SO 135 11,4 C 25,9 C 3,2 km/h (1 Bft)
31.07.2012 10:25 23,9 C 42 % 0,0 l/m 2,6 km/h (1 Bft) W 270 11,8 C 26,6 C 3,9 km/h (1 Bft)
31.07.2012 10:30 23,1 C 44 % 0,0 l/m 2,4 km/h (1 Bft) W-SW 247 10,2 C 25,8 C 6,4 km/h (2 Bft)
31.07.2012 10:35 23,6 C 45 % 0,0 l/m 2,7 km/h (1 Bft) S-SO 157 11,6 C 25,1 C 0,0 km/h (0 Bft)
31.07.2012 10:40 24,3 C 42 % 0,0 l/m 2,1 km/h (1 Bft) W-SW 247 12,2 C 26,5 C 1,8 km/h (1 Bft)
31.07.2012 10:45 24,1 C 40 % 0,0 l/m 1,1 km/h (1 Bft) NO 45 10,4 C 28,2 C 0,0 km/h (0 Bft)
31.07.2012 10:50 24,5 C 45 % 0,0 l/m 1,4 km/h (1 Bft) S 180 11,8 C 27,9 C 4,0 km/h (1 Bft)
31.07.2012 10:55 24,3 C 46 % 0,0 l/m 3,2 km/h (1 Bft) S 180 12,2 C 27,4 C 5,0 km/h (1 Bft)
31.07.2012 11:00 24,7 C 46 % 0,0 l/m 4,0 km/h (1 Bft) S 180 12,6 C 26,7 C 4,2 km/h (1 Bft)
31.07.2012 11:05 25,1 C 43 % 0,0 l/m 3,2 km/h (1 Bft) S-SO 157 11,9 C 26,8 C 2,3 km/h (1 Bft)
31.07.2012 11:10 25,0 C 44 % 0,0 l/m 2,9 km/h (1 Bft) SO 135 11,9 C 27,2 C 2,4 km/h (1 Bft)
31.07.2012 11:15 24,6 C 41 % 0,0 l/m 3,2 km/h (1 Bft) NW 315 10,5 C 27,3 C 4,5 km/h (1 Bft)
31.07.2012 11:20 25,4 C 42 % 0,0 l/m 2,7 km/h (1 Bft) SW 225 11,5 C 27,2 C 0,0 km/h (0 Bft)
31.07.2012 11:25 24,6 C 45 % 0,0 l/m 1,1 km/h (1 Bft) S-SW 202 11,9 C 27,6 C 2,1 km/h (1 Bft)
31.07.2012 11:30 25,5 C 44 % 0,0 l/m 0,5 km/h (0 Bft) O-SO 112 12,3 C 27,8 C 2,6 km/h (1 Bft)
31.07.2012 11:35 25,8 C 41 % 0,0 l/m 2,3 km/h (1 Bft) S 180 11,5 C 28,2 C 5,0 km/h (1 Bft)
31.07.2012 11:40 25,9 C 42 % 0,0 l/m 2,6 km/h (1 Bft) N-NW 337 12,0 C 28,4 C 1,6 km/h (1 Bft)
31.07.2012 11:45 24,9 C 41 % 0,0 l/m 2,3 km/h (1 Bft) W-NW 292 10,7 C 28,6 C 2,1 km/h (1 Bft)
31.07.2012 11:50 25,3 C 38 % 0,0 l/m 2,7 km/h (1 Bft) S-SW 202 9,9 C 28,5 C 5,3 km/h (1 Bft)
31.07.2012 11:55 26,2 C 40 % 0,0 l/m 3,2 km/h (1 Bft) W-SW 247 11,5 C 28,5 C 5,5 km/h (1 Bft)
31.07.2012 12:00 26,9 C 39 % 0,0 l/m 3,4 km/h (1 Bft) W-NW 292 11,8 C 28,6 C 3,1 km/h (1 Bft)
31.07.2012 12:05 26,9 C 35 % 0,0 l/m 4,0 km/h (1 Bft) SO 135 10,1 C 28,7 C 7,6 km/h (2 Bft)
31.07.2012 12:10 26,9 C 37 % 0,0 l/m 3,5 km/h (1 Bft) N 360 11,0 C 29,2 C 7,9 km/h (2 Bft)
31.07.2012 12:15 27,3 C 40 % 0,0 l/m 2,1 km/h (1 Bft) O-NO 67 12,5 C 29,8 C 1,9 km/h (1 Bft)
31.07.2012 12:20 28,0 C 38 % 0,0 l/m 1,1 km/h (1 Bft) N-NW 337 12,3 C 30,5 C 2,1 km/h (1 Bft)
31.07.2012 12:25 27,6 C 39 % 0,0 l/m 1,4 km/h (1 Bft) S-SW 202 12,4 C 30,6 C 4,2 km/h (1 Bft)
31.07.2012 12:30 27,1 C 39 % 0,0 l/m 2,6 km/h (1 Bft) SW 225 11,9 C 30,3 C 8,0 km/h (2 Bft)
31.07.2012 12:35 27,3 C 38 % 0,0 l/m 3,7 km/h (1 Bft) SO 135 11,7 C 29,8 C 4,7 km/h (1 Bft)
31.07.2012 12:40 27,3 C 38 % 0,0 l/m 3,5 km/h (1 Bft) O-SO 112 11,7 C 29,8 C 2,3 km/h (1 Bft)
31.07.2012 12:45 27,1 C 39 % 0,0 l/m 3,4 km/h (1 Bft) W-SW 247 11,9 C 29,4 C 6,1 km/h (2 Bft)
31.07.2012 12:50 25,9 C 38 % 0,0 l/m 3,9 km/h (1 Bft) W 270 10,5 C 29,0 C 8,7 km/h (2 Bft)
31.07.2012 12:55 26,4 C 39 % 0,0 l/m 3,7 km/h (1 Bft) W-NW 292 11,3 C 28,8 C 2,3 km/h (1 Bft)
31.07.2012 13:00 24,2 C 42 % 0,0 l/m 2,7 km/h (1 Bft) W-SW 247 10,5 C 28,1 C 5,0 km/h (1 Bft)
31.07.2012 13:05 23,3 C 47 % 0,0 l/m 2,9 km/h (1 Bft) SO 135 11,3 C 26,0 C 2,7 km/h (1 Bft)
31.07.2012 13:10 23,1 C 48 % 0,0 l/m 3,2 km/h (1 Bft) S-SW 202 11,5 C 25,2 C 8,9 km/h (2 Bft)
31.07.2012 13:15 22,5 C 52 % 0,0 l/m 1,3 km/h (1 Bft) O 90 12,1 C 25,0 C 0,0 km/h (0 Bft)
31.07.2012 13:20 23,1 C 52 % 0,0 l/m 0,5 km/h (0 Bft) NO 45 12,7 C 25,5 C 0,0 km/h (0 Bft)
31.07.2012 13:25 25,1 C 45 % 0,0 l/m 2,6 km/h (1 Bft) S-SO 157 12,3 C 27,2 C 8,7 km/h (2 Bft)
31.07.2012 13:30 23,7 C 45 % 0,0 l/m 4,3 km/h (1 Bft) SW 225 11,1 C 26,9 C 10,6 km/h (2 Bft)
31.07.2012 13:35 23,4 C 47 % 0,0 l/m 5,1 km/h (1 Bft) S-SW 202 11,4 C 25,5 C 3,5 km/h (1 Bft)
31.07.2012 13:40 24,2 C 47 % 0,0 l/m 4,3 km/h (1 Bft) SO 135 12,2 C 25,4 C 4,0 km/h (1 Bft)
31.07.2012 13:45 23,4 C 47 % 0,0 l/m 4,5 km/h (1 Bft) S-SO 157 11,4 C 25,3 C 3,9 km/h (1 Bft)
31.07.2012 13:50 23,0 C 48 % 0,0 l/m 3,5 km/h (1 Bft) O-SO 112 11,4 C 24,9 C 12,4 km/h (3 Bft)
31.07.2012 13:55 24,4 C 49 % 0,0 l/m 1,4 km/h (1 Bft) SO 135 13,0 C 25,5 C 6,1 km/h (2 Bft)
31.07.2012 14:00 25,3 C 47 % 0,0 l/m 1,9 km/h (1 Bft) O-SO 112 13,2 C 26,6 C 6,3 km/h (2 Bft)
31.07.2012 14:05 25,4 C 44 % 0,0 l/m 4,3 km/h (1 Bft) S-SO 157 12,2 C 26,8 C 5,5 km/h (1 Bft)
31.07.2012 14:10 25,4 C 43 % 0,0 l/m 4,2 km/h (1 Bft) SW 225 11,9 C 27,2 C 4,8 km/h (1 Bft)
31.07.2012 14:15 25,7 C 42 % 0,0 l/m 3,9 km/h (1 Bft) S 180 11,8 C 27,8 C 3,5 km/h (1 Bft)
31.07.2012 14:20 26,5 C 40 % 0,0 l/m 3,4 km/h (1 Bft) W-SW 247 11,8 C 28,2 C 3,9 km/h (1 Bft)
31.07.2012 14:25 26,6 C 39 % 0,0 l/m 3,5 km/h (1 Bft) W-SW 247 11,5 C 29,0 C 11,6 km/h (2 Bft)
31.07.2012 14:30 24,9 C 40 % 0,0 l/m 4,5 km/h (1 Bft) W 270 10,4 C 28,2 C 4,3 km/h (1 Bft)
31.07.2012 14:35 23,9 C 47 % 0,0 l/m 5,5 km/h (1 Bft) SO 135 11,9 C 26,6 C 4,3 km/h (1 Bft)
31.07.2012 14:40 24,4 C 45 % 0,0 l/m 4,0 km/h (1 Bft) O-SO 112 11,7 C 25,8 C 4,8 km/h (1 Bft)
31.07.2012 14:45 24,0 C 48 % 0,0 l/m 3,4 km/h (1 Bft) O-SO 112 12,3 C 25,8 C 2,9 km/h (1 Bft)
31.07.2012 14:50 23,9 C 48 % 0,0 l/m 3,9 km/h (1 Bft) W-SW 247 12,2 C 25,6 C 8,0 km/h (2 Bft)
31.07.2012 14:55 23,6 C 48 % 0,0 l/m 4,7 km/h (1 Bft) W-NW 292 11,9 C 25,0 C 2,3 km/h (1 Bft)
31.07.2012 15:00 23,3 C 50 % 0,0 l/m 3,4 km/h (1 Bft) O-SO 112 12,3 C 25,1 C 1,9 km/h (1 Bft)
31.07.2012 15:05 23,8 C 49 % 0,0 l/m 1,6 km/h (1 Bft) S-SW 202 12,4 C 25,3 C 3,9 km/h (1 Bft)
31.07.2012 15:10 23,9 C 48 % 0,0 l/m 3,2 km/h (1 Bft) SO 135 12,2 C 25,2 C 4,2 km/h (1 Bft)
31.07.2012 15:15 24,0 C 45 % 0,0 l/m 3,7 km/h (1 Bft) SO 135 11,3 C 25,5 C 3,4 km/h (1 Bft)
31.07.2012 15:20 25,0 C 46 % 0,0 l/m 2,4 km/h (1 Bft) O-SO 112 12,6 C 25,8 C 3,1 km/h (1 Bft)
31.07.2012 15:25 25,2 C 45 % 0,0 l/m 3,4 km/h (1 Bft) SO 135 12,4 C 27,1 C 4,8 km/h (1 Bft)
31.07.2012 15:30 24,7 C 46 % 0,0 l/m 4,2 km/h (1 Bft) O 90 12,3 C 26,8 C 4,5 km/h (1 Bft)
31.07.2012 15:35 24,5 C 44 % 0,0 l/m 4,2 km/h (1 Bft) S 180 11,4 C 26,2 C 8,4 km/h (2 Bft)
31.07.2012 15:40 24,6 C 46 % 0,0 l/m 4,8 km/h (1 Bft) W-SW 247 12,2 C 26,4 C 7,7 km/h (2 Bft)
31.07.2012 15:45 25,1 C 43 % 0,0 l/m 5,3 km/h (1 Bft) W-SW 247 11,6 C 27,0 C 5,0 km/h (1 Bft)
31.07.2012 15:50 24,6 C 43 % 0,0 l/m 3,7 km/h (1 Bft) SO 135 11,2 C 26,9 C 3,4 km/h (1 Bft)
31.07.2012 15:55 27,0 C 41 % 0,0 l/m 1,9 km/h (1 Bft) N-NO 22 12,6 C 28,4 C 1,6 km/h (1 Bft)
31.07.2012 16:00 27,6 C 40 % 0,0 l/m 2,4 km/h (1 Bft) S-SO 157 12,8 C 29,8 C 6,3 km/h (2 Bft)
31.07.2012 16:05 27,2 C 38 % 0,0 l/m 3,7 km/h (1 Bft) S-SW 202 11,6 C 30,5 C 3,5 km/h (1 Bft)
31.07.2012 16:10 26,7 C 38 % 0,0 l/m 4,0 km/h (1 Bft) W-NW 292 11,2 C 30,5 C 2,3 km/h (1 Bft)
31.07.2012 16:15 25,7 C 42 % 0,0 l/m 3,7 km/h (1 Bft) S 180 11,8 C 30,1 C 5,5 km/h (1 Bft)
31.07.2012 16:20 26,6 C 41 % 0,0 l/m 4,0 km/h (1 Bft) S-SO 157 12,2 C 29,4 C 4,8 km/h (1 Bft)
31.07.2012 16:25 26,4 C 40 % 0,0 l/m 5,5 km/h (1 Bft) O-SO 112 11,7 C 29,3 C 10,5 km/h (2 Bft)
31.07.2012 16:30 26,3 C 39 % 0,0 l/m 5,8 km/h (2 Bft) O-NO 67 11,2 C 29,1 C 2,1 km/h (1 Bft)
31.07.2012 16:35 25,9 C 43 % 0,0 l/m 5,0 km/h (1 Bft) S 180 12,3 C 29,0 C 5,3 km/h (1 Bft)
31.07.2012 16:40 26,0 C 40 % 0,0 l/m 3,4 km/h (1 Bft) S 180 11,3 C 29,2 C 3,9 km/h (1 Bft)
31.07.2012 16:45 26,0 C 42 % 0,0 l/m 3,4 km/h (1 Bft) NO 45 12,1 C 29,9 C 2,3 km/h (1 Bft)
31.07.2012 16:50 25,1 C 43 % 0,0 l/m 2,9 km/h (1 Bft) SO 135 11,6 C 29,2 C 2,3 km/h (1 Bft)
31.07.2012 16:55 24,9 C 47 % 0,0 l/m 2,7 km/h (1 Bft) O-SO 112 12,8 C 28,2 C 3,5 km/h (1 Bft)
31.07.2012 17:00 24,5 C 48 % 0,0 l/m 3,7 km/h (1 Bft) O-SO 112 12,8 C 27,8 C 5,6 km/h (1 Bft)
31.07.2012 17:05 24,5 C 46 % 0,0 l/m 3,7 km/h (1 Bft) S-SO 157 12,1 C 27,8 C 3,7 km/h (1 Bft)
31.07.2012 17:10 24,6 C 48 % 0,0 l/m 3,7 km/h (1 Bft) S 180 12,8 C 28,4 C 3,4 km/h (1 Bft)
31.07.2012 17:15 24,3 C 47 % 0,0 l/m 5,1 km/h (1 Bft) S-SW 202 12,3 C 28,7 C 4,2 km/h (1 Bft)
31.07.2012 17:20 24,1 C 49 % 0,0 l/m 5,6 km/h (1 Bft) S-SO 157 12,7 C 28,4 C 8,2 km/h (2 Bft)
31.07.2012 17:25 24,0 C 48 % 0,0 l/m 5,6 km/h (1 Bft) S 180 12,3 C 28,3 C 6,0 km/h (2 Bft)
31.07.2012 17:30 23,9 C 48 % 0,0 l/m 6,1 km/h (2 Bft) S 180 12,2 C 28,2 C 13,8 km/h (3 Bft)
31.07.2012 17:35 23,8 C 51 % 0,0 l/m 5,1 km/h (1 Bft) S 180 13,0 C 28,5 C 7,9 km/h (2 Bft)
31.07.2012 17:40 23,7 C 49 % 0,0 l/m 5,0 km/h (1 Bft) S 180 12,3 C 28,4 C 3,4 km/h (1 Bft)
31.07.2012 17:45 23,9 C 49 % 0,0 l/m 5,1 km/h (1 Bft) S-SO 157 12,5 C 28,6 C 4,7 km/h (1 Bft)
31.07.2012 17:50 23,9 C 50 % 0,0 l/m 4,7 km/h (1 Bft) O 90 12,8 C 28,5 C 4,3 km/h (1 Bft)
31.07.2012 17:55 23,8 C 49 % 0,0 l/m 3,9 km/h (1 Bft) S-SO 157 12,4 C 28,7 C 2,9 km/h (1 Bft)
31.07.2012 18:00 23,0 C 51 % 0,0 l/m 3,4 km/h (1 Bft) O-SO 112 12,3 C 27,9 C 4,7 km/h (1 Bft)
31.07.2012 18:05 22,4 C 54 % 0,0 l/m 3,5 km/h (1 Bft) SO 135 12,6 C 25,9 C 3,4 km/h (1 Bft)
31.07.2012 18:10 22,4 C 55 % 0,0 l/m 3,7 km/h (1 Bft) O 90 12,9 C 25,1 C 1,8 km/h (1 Bft)
31.07.2012 18:15 22,8 C 55 % 0,0 l/m 2,6 km/h (1 Bft) S-SW 202 13,3 C 25,5 C 2,4 km/h (1 Bft)
31.07.2012 18:20 22,8 C 54 % 0,0 l/m 2,7 km/h (1 Bft) S 180 13,0 C 25,5 C 4,3 km/h (1 Bft)
31.07.2012 18:25 22,4 C 54 % 0,0 l/m 3,5 km/h (1 Bft) S-SW 202 12,6 C 24,8 C 6,0 km/h (2 Bft)
31.07.2012 18:30 22,2 C 54 % 0,0 l/m 3,2 km/h (1 Bft) S 180 12,4 C 24,2 C 4,2 km/h (1 Bft)
31.07.2012 18:35 22,4 C 53 % 0,0 l/m 2,6 km/h (1 Bft) O-SO 112 12,3 C 24,0 C 3,2 km/h (1 Bft)
31.07.2012 18:40 23,0 C 50 % 0,0 l/m 1,9 km/h (1 Bft) O-SO 112 12,0 C 25,0 C 2,4 km/h (1 Bft)
31.07.2012 18:45 23,3 C 52 % 0,0 l/m 2,4 km/h (1 Bft) S 180 12,9 C 26,9 C 4,8 km/h (1 Bft)
31.07.2012 18:50 23,2 C 50 % 0,0 l/m 2,4 km/h (1 Bft) S 180 12,2 C 27,1 C 2,4 km/h (1 Bft)
31.07.2012 18:55 23,2 C 49 % 0,0 l/m 3,5 km/h (1 Bft) S 180 11,9 C 27,3 C 6,1 km/h (2 Bft)
31.07.2012 19:00 23,6 C 49 % 0,0 l/m 4,2 km/h (1 Bft) S-SO 157 12,2 C 27,5 C 6,8 km/h (2 Bft)
31.07.2012 19:05 23,2 C 50 % 0,0 l/m 4,7 km/h (1 Bft) S 180 12,2 C 27,3 C 7,7 km/h (2 Bft)
31.07.2012 19:10 23,2 C 52 % 0,0 l/m 5,1 km/h (1 Bft) SO 135 12,8 C 27,0 C 12,1 km/h (2 Bft)
31.07.2012 19:15 23,1 C 51 % 0,0 l/m 5,5 km/h (1 Bft) SO 135 12,4 C 26,8 C 6,0 km/h (2 Bft)
31.07.2012 19:20 22,8 C 53 % 0,0 l/m 6,0 km/h (2 Bft) O 90 12,7 C 26,6 C 5,3 km/h (1 Bft)
31.07.2012 19:25 22,2 C 54 % 0,0 l/m 4,8 km/h (1 Bft) S-SW 202 12,4 C 25,9 C 4,8 km/h (1 Bft)
31.07.2012 19:30 21,7 C 56 % 0,0 l/m 4,5 km/h (1 Bft) O-SO 112 12,5 C 25,0 C 4,8 km/h (1 Bft)
31.07.2012 19:35 21,1 C 57 % 0,0 l/m 4,5 km/h (1 Bft) S 180 12,2 C 24,0 C 5,6 km/h (1 Bft)
31.07.2012 19:40 20,9 C 58 % 0,0 l/m 4,0 km/h (1 Bft) O-SO 112 12,3 C 23,4 C 6,4 km/h (2 Bft)
31.07.2012 19:45 20,5 C 58 % 0,0 l/m 3,5 km/h (1 Bft) O-SO 112 11,9 C 22,7 C 3,7 km/h (1 Bft)
31.07.2012 19:50 20,4 C 59 % 0,0 l/m 3,2 km/h (1 Bft) SO 135 12,1 C 22,4 C 1,8 km/h (1 Bft)
31.07.2012 19:55 20,4 C 59 % 0,0 l/m 2,6 km/h (1 Bft) SO 135 12,1 C 22,3 C 3,9 km/h (1 Bft)
31.07.2012 20:00 20,3 C 59 % 0,0 l/m 2,7 km/h (1 Bft) SO 135 12,0 C 22,2 C 2,3 km/h (1 Bft)
31.07.2012 20:05 20,1 C 60 % 0,0 l/m 3,4 km/h (1 Bft) SO 135 12,1 C 22,1 C 4,5 km/h (1 Bft)
31.07.2012 20:10 19,9 C 61 % 0,0 l/m 2,6 km/h (1 Bft) S 180 12,2 C 21,9 C 1,6 km/h (1 Bft)
31.07.2012 20:15 19,7 C 62 % 0,0 l/m 1,6 km/h (1 Bft) O-SO 112 12,2 C 21,5 C 2,7 km/h (1 Bft)
31.07.2012 20:20 19,6 C 61 % 0,0 l/m 1,4 km/h (1 Bft) NO 45 11,9 C 21,5 C 0,0 km/h (0 Bft)
31.07.2012 20:25 19,4 C 62 % 0,0 l/m 1,0 km/h (0 Bft) SO 135 11,9 C 21,5 C 2,3 km/h (1 Bft)
31.07.2012 20:30 19,3 C 63 % 0,0 l/m 0,5 km/h (0 Bft) SO 135 12,1 C 21,6 C 0,0 km/h (0 Bft)
31.07.2012 20:35 19,1 C 63 % 0,0 l/m 0,6 km/h (0 Bft) SO 135 11,9 C 21,3 C 2,1 km/h (1 Bft)
31.07.2012 20:40 19,0 C 63 % 0,0 l/m 0,3 km/h (0 Bft) N 360 11,8 C 21,2 C 0,0 km/h (0 Bft)
31.07.2012 20:45 18,9 C 64 % 0,0 l/m 0,2 km/h (0 Bft) N-NO 22 11,9 C 20,6 C 0,0 km/h (0 Bft)
31.07.2012 20:50 18,6 C 64 % 0,0 l/m 0,2 km/h (0 Bft) N-NO 22 11,7 C 20,0 C 0,0 km/h (0 Bft)
31.07.2012 20:55 18,2 C 66 % 0,0 l/m 0,2 km/h (0 Bft) W-NW 292 11,7 C 19,1 C 0,0 km/h (0 Bft)
31.07.2012 21:00 17,9 C 69 % 0,0 l/m 0,0 km/h (0 Bft) NW 315 12,1 C 18,5 C 0,0 km/h (0 Bft)
31.07.2012 21:05 17,6 C 70 % 0,0 l/m 0,2 km/h (0 Bft) NO 45 12,1 C 17,9 C 0,0 km/h (0 Bft)
31.07.2012 21:10 17,5 C 70 % 0,0 l/m 0,2 km/h (0 Bft) NO 45 12,0 C 17,6 C 0,0 km/h (0 Bft)
31.07.2012 21:15 17,3 C 70 % 0,0 l/m 0,2 km/h (0 Bft) N-NO 22 11,8 C 17,3 C 0,0 km/h (0 Bft)
31.07.2012 21:20 17,1 C 70 % 0,0 l/m 0,2 km/h (0 Bft) NO 45 11,6 C 17,1 C 1,8 km/h (1 Bft)
31.07.2012 21:25 16,8 C 72 % 0,0 l/m 0,2 km/h (0 Bft) N-NO 22 11,7 C 16,8 C 0,0 km/h (0 Bft)
31.07.2012 21:30 16,6 C 72 % 0,0 l/m 0,2 km/h (0 Bft) N-NO 22 11,5 C 16,6 C 0,0 km/h (0 Bft)
31.07.2012 21:35 16,5 C 73 % 0,0 l/m 0,3 km/h (0 Bft) N-NO 22 11,6 C 16,4 C 2,3 km/h (1 Bft)
31.07.2012 21:40 16,3 C 73 % 0,0 l/m 0,5 km/h (0 Bft) N 360 11,4 C 16,2 C 0,0 km/h (0 Bft)
31.07.2012 21:45 16,3 C 74 % 0,0 l/m 0,5 km/h (0 Bft) O 90 11,7 C 15,8 C 0,0 km/h (0 Bft)
31.07.2012 21:50 16,2 C 74 % 0,0 l/m 0,2 km/h (0 Bft) NO 45 11,6 C 15,8 C 0,0 km/h (0 Bft)
31.07.2012 21:55 16,0 C 75 % 0,0 l/m 0,6 km/h (0 Bft) N-NO 22 11,6 C 15,7 C 0,0 km/h (0 Bft)
31.07.2012 22:00 16,0 C 75 % 0,0 l/m 0,5 km/h (0 Bft) N-NO 22 11,6 C 15,6 C 1,8 km/h (1 Bft)
31.07.2012 22:05 15,9 C 77 % 0,0 l/m 0,0 km/h (0 Bft) N-NO 22 11,9 C 15,4 C 0,0 km/h (0 Bft)
31.07.2012 22:10 15,6 C 77 % 0,0 l/m 0,2 km/h (0 Bft) N 360 11,6 C 15,2 C 0,0 km/h (0 Bft)
31.07.2012 22:15 15,5 C 78 % 0,0 l/m 0,2 km/h (0 Bft) O-SO 112 11,7 C 14,9 C 0,0 km/h (0 Bft)
31.07.2012 22:20 15,1 C 78 % 0,0 l/m 0,2 km/h (0 Bft) N 360 11,3 C 14,7 C 0,0 km/h (0 Bft)
31.07.2012 22:25 15,2 C 78 % 0,0 l/m 0,2 km/h (0 Bft) N-NO 22 11,4 C 14,5 C 1,6 km/h (1 Bft)
31.07.2012 22:30 14,9 C 78 % 0,0 l/m 0,2 km/h (0 Bft) NO 45 11,1 C 14,3 C 0,0 km/h (0 Bft)
31.07.2012 22:35 14,9 C 79 % 0,0 l/m 0,2 km/h (0 Bft) N-NO 22 11,3 C 14,1 C 0,0 km/h (0 Bft)
31.07.2012 22:40 14,9 C 79 % 0,0 l/m 0,0 km/h (0 Bft) NO 45 11,3 C 14,1 C 0,0 km/h (0 Bft)
31.07.2012 22:45 14,9 C 80 % 0,0 l/m 0,2 km/h (0 Bft) N 360 11,5 C 14,2 C 0,0 km/h (0 Bft)
31.07.2012 22:50 14,7 C 80 % 0,0 l/m 0,3 km/h (0 Bft) O 90 11,3 C 14,3 C 2,7 km/h (1 Bft)
31.07.2012 22:55 14,5 C 80 % 0,0 l/m 0,5 km/h (0 Bft) O 90 11,1 C 14,1 C 0,0 km/h (0 Bft)
31.07.2012 23:00 14,1 C 81 % 0,0 l/m 0,3 km/h (0 Bft) NW 315 10,9 C 13,9 C 0,0 km/h (0 Bft)
31.07.2012 23:05 13,9 C 81 % 0,0 l/m 0,2 km/h (0 Bft) N-NO 22 10,7 C 13,7 C 0,0 km/h (0 Bft)
31.07.2012 23:10 13,8 C 81 % 0,0 l/m 0,2 km/h (0 Bft) NO 45 10,6 C 13,6 C 1,8 km/h (1 Bft)
31.07.2012 23:15 13,7 C 81 % 0,0 l/m 0,0 km/h (0 Bft) N 360 10,5 C 13,4 C 0,0 km/h (0 Bft)
31.07.2012 23:20 13,8 C 81 % 0,0 l/m 0,0 km/h (0 Bft) NO 45 10,6 C 13,4 C 0,0 km/h (0 Bft)
31.07.2012 23:25 13,5 C 81 % 0,0 l/m 0,0 km/h (0 Bft) W-SW 247 10,3 C 13,2 C 0,0 km/h (0 Bft)
31.07.2012 23:30 13,4 C 82 % 0,0 l/m 0,0 km/h (0 Bft) W-NW 292 10,4 C 13,1 C 0,0 km/h (0 Bft)
31.07.2012 23:35 13,2 C 82 % 0,0 l/m 0,2 km/h (0 Bft) S 180 10,2 C 13,0 C 0,0 km/h (0 Bft)
31.07.2012 23:40 13,1 C 82 % 0,0 l/m 0,2 km/h (0 Bft) S 180 10,1 C 13,0 C 0,0 km/h (0 Bft)
31.07.2012 23:45 12,8 C 83 % 0,0 l/m 0,0 km/h (0 Bft) N 360 10,0 C 12,7 C 0,0 km/h (0 Bft)
31.07.2012 23:50 12,9 C 85 % 0,0 l/m 0,0 km/h (0 Bft) W-NW 292 10,4 C 12,6 C 0,0 km/h (0 Bft)
31.07.2012 23:55 13,0 C 84 % 0,0 l/m 0,2 km/h (0 Bft) O 90 10,4 C 12,6 C 0,0 km/h (0 Bft)
_ Min-Zeit 05:35 12:05 - 23:50 - - 05:35 05:40 23:55
Minimum _ 9,5 C 35 % - 0,0 km/h (0 Bft) - - 7,9 C 9,2 C 0,0 km/h (0 Bft)
_ Max-Zeit 12:20 06:50 23:55 17:30 - - 08:05 12:25 17:30
Maximum _ 28,0 C 91 % 0,0 l/m 6,1 km/h
S (2 Bft)
- - 14,3 C 30,6 C 13,8 km/h
S (3 Bft)
Durchschnitt _ 18,6 C 64 % #0,0 l/m 1,6 km/h (1 Bft) S - 11,1 C 20,0 C 2,2 km/h (1 Bft)